Location: Poughquag
(41.6090°N, 73.6820°W)
Time: 12:11:34
(UTC-04:00)

Tiros 1 - Pass Details

Date: 06 June 2020
Orbit: 630 x 664 km, 48.4° (Epoch: 06 July)

Event Time Altitude Azimuth Distance (km) Brightness Sun altitude
Rises 11:06:30 0° 238° (WSW) 2,981 10.4 60.7°
Reaches altitude 10° 11:08:51 10° 238° (WSW) 2,068 9.7 61.1°
Maximum altitude 11:13:38 85° 152° (SSE) 662 8.7 61.9°
Drops below altitude 10° 11:18:23 10° 62° (ENE) 2,057 10.1 62.6°
Sets 11:20:43 0° 62° (ENE) 2,964 10.7 62.9°
